国际通讯卫星 502星 (INTELSAT 502)

导读 | 星芒AI

INTELSAT 502 是一颗由国际通信卫星组织(Intelsat)运营的通信卫星,于1984年发射,搭载在Ariane 1火箭上。该卫星运行在地球静止轨道,主要提供跨大西洋的电视广播和数据传输服务。INTELSAT 502 配备了多个C波段转发器,支持国际通信和广播业务,是当时连接欧洲、非洲和美洲的重要通信节点。尽管已退役,但它在推动全球卫星通信发展方面发挥了重要作用。

基本信息
目录编号:
12089
目录名称:
INTELSAT 502
国际标识:
1980-098A
轨道中心:
EARTH
卫星名称:
国际通讯卫星 502星
卫星全名:
国际通讯卫星 502星 (INTELSAT 502)
卫星状态:
在轨 (已飞行16398 天)
发射日期:
1980-12-06 UTC
国别 :
(ITSO)
星等 :
--
轨道信息
数据来源 国际轨道数据 AOE轨道数据
星历时间 2025-10-28T13:07:59+0800
1天前
查看轨道信息
2025-10-24T13:00:00+0800
5天前
查看轨道信息
半长轴 42556.486km 42556.744km
偏心率 0.001371 0.0013485
轨道倾角 11.617° 11.623°
近地点辐角 290.272° 288.895°
升交点赤经 328.428° 328.450°
平近点角 71.802° 87.155°
近地点 36120.006km 36121.221km
远地点 36236.696km 36235.997km
周期 1456.158分钟 1456.171分钟
每日圈数 0.988904 0.988895
详细信息
卫星平台:
Intelsat V
平衡模式:
三轴稳定
覆盖范围:
全球
运营商:
国际卫星通信公司
运营商所在国:
美国
制造商(研发单位):
福特工程公司
制造商所在国:
美国
使用方式:
暂无
卫星简介
从1965年4月至1984年3月,国际通信卫星组织发射了5代、6种不同性能的卫星共计35颗,除6颗卫星因运载火箭和远地点发动机故障而发射失败外,其余29颗卫星均被送到了预定的静止轨道位置。1984年8月前后,国际通信卫星组织利用部署在大西洋、太平洋、印度洋上空的15颗国际通信卫星,为遍布世界各地170多个国家或地区提供电话、电传、电报、电视和数据传输等电信业务;该卫星已退役。
2D轨道图
3D轨道图
轨道高度分析图
轨道倾角分析图
轨道综合分析图
查看轨道综合分析图